Total_Precipitation_Accumulation
0.70 0.88 1.03 1.21 1.58 2.21 2.83 3.07 2.86 2.23 1.82 1.57 1.44 1.27 1.12 1.02 0.95 0.87 0.78 0.69 0.69 0.64 0.64 0.61 0.63 0.69 0.68 0.68 0.82 0.95 0.95 0.78 0.94 1.01 0.80 0.65 0.58 0.57 0.56 0.50 0.49 0.49 0.51
0.66 0.98 1.35 1.65 2.01 2.28 2.45 2.37 2.01 1.45 1.11 0.90 0.77 0.64 0.55 0.54 0.54 0.52 0.52 0.53 0.54 0.54 0.53 0.50 0.48 0.48 0.52 0.53 0.59 0.70 0.70 0.62 0.73 0.82 0.75 0.55 0.48 0.43 0.34 0.37 0.37 0.36 0.45
0.98 1.51 1.98 2.20 2.19 2.06 1.73 1.29 0.95 0.69 0.60 0.47 0.39 0.30 0.25 0.24 0.25 0.27 0.30 0.33 0.33 0.33 0.33 0.32 0.32 0.34 0.39 0.42 0.48 0.56 0.59 0.52 0.51 0.62 0.72 0.55 0.40 0.37 0.34 0.34 0.36 0.42 0.45
1.20 1.69 2.00 1.92 1.73 1.44 0.97 0.63 0.50 0.40 0.34 0.29 0.28 0.25 0.20 0.19 0.20 0.21 0.23 0.23 0.22 0.23 0.23 0.21 0.21 0.22 0.25 0.33 0.35 0.44 0.54 0.53 0.43 0.46 0.55 0.55 0.50 0.43 0.36 0.35 0.34 0.40 0.42
0.90 0.99 1.02 0.95 0.77 0.58 0.54 0.50 0.44 0.42 0.39 0.32 0.29 0.25 0.21 0.19 0.20 0.21 0.22 0.24 0.25 0.23 0.23 0.22 0.20 0.21 0.21 0.24 0.28 0.36 0.46 0.52 0.47 0.44 0.49 0.58 0.57 0.48 0.43 0.35 0.37 0.43 0.36
0.51 0.44 0.34 0.28 0.25 0.23 0.24 0.26 0.28 0.36 0.40 0.38 0.32 0.29 0.24 0.21 0.19 0.18 0.18 0.20 0.23 0.25 0.25 0.25 0.26 0.26 0.26 0.26 0.26 0.28 0.33 0.45 0.53 0.53 0.51 0.55 0.56 0.46 0.43 0.34 0.31 0.39 0.39
0.36 0.37 0.32 0.24 0.19 0.16 0.14 0.14 0.14 0.18 0.21 0.23 0.24 0.24 0.24 0.22 0.19 0.17 0.15 0.16 0.17 0.20 0.22 0.23 0.25 0.27 0.30 0.30 0.28 0.28 0.28 0.36 0.46 0.49 0.52 0.52 0.51 0.54 0.55 0.51 0.41 0.43 0.47
0.21 0.25 0.22 0.18 0.14 0.10 0.08 0.07 0.07 0.08 0.08 0.09 0.10 0.12 0.15 0.16 0.18 0.21 0.17 0.17 0.18 0.19 0.20 0.20 0.19 0.22 0.27 0.31 0.34 0.32 0.33 0.36 0.38 0.38 0.52 0.57 0.51 0.61 0.65 0.68 0.71 0.63 0.63
0.10 0.10 0.09 0.07 0.06 0.05 0.05 0.04 0.04 0.03 0.03 0.04 0.05 0.06 0.09 0.13 0.15 0.17 0.17 0.17 0.22 0.21 0.20 0.20 0.20 0.22 0.24 0.28 0.32 0.32 0.34 0.37 0.38 0.41 0.51 0.59 0.65 0.69 0.66 0.76 0.84 0.85 0.77
0.06 0.06 0.05 0.04 0.03 0.02 0.02 0.02 0.02 0.02 0.01 0.01 0.02 0.02 0.04 0.07 0.10 0.11 0.13 0.15 0.16 0.19 0.20 0.20 0.19 0.20 0.21 0.23 0.26 0.28 0.35 0.42 0.47 0.54 0.59 0.61 0.67 0.76 0.69 0.75 0.82 0.84 0.89
0.03 0.03 0.03 0.02 0.02 0.01 0.01 0.02 0.02 0.02 0.02 0.01 0.01 0.01 0.03 0.04 0.06 0.10 0.13 0.15 0.13 0.13 0.14 0.16 0.18 0.19 0.21 0.25 0.31 0.34 0.38 0.48 0.60 0.69 0.72 0.75 0.77 0.81 0.79 0.85 0.86 0.81 0.89
0.01 0.01 0.01 0.01 0.01 0.01 0.01 0.02 0.02 0.02 0.02 0.02 0.02 0.01 0.01 0.02 0.04 0.07 0.10 0.11 0.12 0.12 0.12 0.13 0.14 0.14 0.15 0.21 0.31 0.42 0.44 0.47 0.55 0.77 0.99 1.01 1.01 0.93 0.84 0.92 0.91 0.87 1.01
0.00 0.00 0.00 0.01 0.01 0.01 0.02 0.02 0.02 0.01 0.01 0.01 0.01 0.01 0.01 0.01 0.02 0.04 0.05 0.07 0.09 0.11 0.12 0.13 0.13 0.12 0.12 0.14 0.22 0.35 0.40 0.49 0.63 0.79 0.92 1.04 1.16 1.05 0.95 0.93 0.93 0.96 1.05
0.00 0.00 0.00 0.00 0.00 0.01 0.01 0.01 0.00 0.00 0.00 0.01 0.01 0.01 0.02 0.02 0.02 0.02 0.03 0.04 0.07 0.10 0.12 0.14 0.14 0.14 0.12 0.12 0.18 0.26 0.34 0.47 0.65 0.72 0.67 0.77 1.03 1.14 1.06 0.95 0.90 0.94 0.99
0.00 0.00 0.00 0.01 0.01 0.01 0.01 0.02 0.02 0.03 0.03 0.04 0.04 0.05 0.05 0.06 0.06 0.06 0.06 0.06 0.07 0.08 0.12 0.15 0.15 0.15 0.13 0.11 0.18 0.27 0.23 0.28 0.37 0.41 0.41 0.46 0.65 0.92 1.09 1.03 0.93 0.92 0.90
0.03 0.04 0.05 0.05 0.04 0.04 0.04 0.04 0.04 0.04 0.05 0.05 0.05 0.04 0.05 0.05 0.06 0.06 0.06 0.06 0.08 0.12 0.17 0.20 0.20 0.20 0.14 0.11 0.13 0.16 0.18 0.21 0.24 0.27 0.31 0.31 0.32 0.43 0.66 0.87 0.98 1.02 0.96
0.10 0.07 0.05 0.03 0.02 0.01 0.01 0.01 0.01 0.01 0.02 0.03 0.03 0.04 0.05 0.05 0.06 0.06 0.07 0.09 0.12 0.16 0.21 0.25 0.27 0.29 0.28 0.18 0.12 0.09 0.12 0.17 0.20 0.26 0.29 0.23 0.20 0.28 0.37 0.50 0.64 0.78 0.84
0.03 0.01 0.01 0.00 0.00 0.00 0.00 0.01 0.01 0.01 0.02 0.02 0.03 0.04 0.06 0.07 0.08 0.11 0.13 0.17 0.21 0.23 0.27 0.30 0.33 0.39 0.37 0.26 0.17 0.14 0.12 0.17 0.22 0.27 0.30 0.29 0.27 0.29 0.35 0.42 0.44 0.50 0.57
0.02 0.01 0.01 0.00 0.00 0.01 0.01 0.01 0.01 0.02 0.02 0.04 0.07 0.09 0.11 0.13 0.16 0.20 0.24 0.29 0.31 0.31 0.32 0.34 0.39 0.43 0.47 0.35 0.21 0.18 0.19 0.25 0.26 0.28 0.30 0.32 0.32 0.28 0.23 0.32 0.36 0.38 0.43
0.01 0.01 0.00 0.00 0.01 0.02 0.02 0.02 0.02 0.03 0.04 0.06 0.08 0.11 0.17 0.23 0.26 0.30 0.35 0.38 0.41 0.40 0.39 0.37 0.42 0.47 0.54 0.46 0.26 0.21 0.26 0.33 0.35 0.41 0.42 0.35 0.32 0.29 0.20 0.26 0.33 0.34 0.37
0.02 0.01 0.01 0.01 0.02 0.03 0.03 0.05 0.06 0.07 0.07 0.08 0.10 0.12 0.18 0.28 0.32 0.37 0.42 0.46 0.48 0.49 0.50 0.47 0.47 0.53 0.58 0.56 0.33 0.24 0.26 0.38 0.50 0.52 0.53 0.51 0.35 0.23 0.19 0.22 0.30 0.29 0.35
0.02 0.02 0.01 0.01 0.02 0.04 0.07 0.09 0.11 0.10 0.11 0.13 0.15 0.16 0.22 0.30 0.33 0.42 0.47 0.52 0.57 0.60 0.60 0.62 0.60 0.61 0.62 0.56 0.45 0.27 0.23 0.35 0.55 0.66 0.69 0.69 0.50 0.33 0.25 0.23 0.25 0.24 0.26
0.03 0.02 0.02 0.03 0.03 0.06 0.10 0.14 0.14 0.14 0.17 0.18 0.18 0.22 0.26 0.38 0.52 0.57 0.54 0.58 0.64 0.64 0.64 0.69 0.72 0.72 0.73 0.66 0.45 0.33 0.24 0.30 0.49 0.66 0.75 0.70 0.58 0.49 0.39 0.32 0.28 0.27 0.27
0.03 0.03 0.03 0.04 0.06 0.07 0.10 0.15 0.17 0.21 0.25 0.25 0.23 0.25 0.31 0.44 0.68 0.82 0.75 0.69 0.69 0.69 0.70 0.68 0.71 0.77 0.84 0.81 0.63 0.46 0.34 0.37 0.51 0.62 0.65 0.65 0.66 0.65 0.61 0.49 0.40 0.32 0.34
0.03 0.04 0.06 0.08 0.08 0.09 0.12 0.17 0.23 0.30 0.33 0.31 0.28 0.28 0.34 0.49 0.70 0.87 0.87 0.73 0.71 0.69 0.70 0.69 0.69 0.68 0.67 0.64 0.55 0.47 0.48 0.54 0.62 0.64 0.73 0.75 0.81 0.85 0.84 0.77 0.66 0.58 0.53
0.05 0.07 0.09 0.11 0.13 0.16 0.20 0.23 0.29 0.36 0.41 0.39 0.36 0.36 0.40 0.50 0.71 0.93 1.00 0.79 0.63 0.60 0.59 0.53 0.51 0.49 0.42 0.37 0.38 0.36 0.36 0.43 0.49 0.51 0.68 0.80 0.89 0.96 0.96 0.96 0.88 0.78 0.69